Wind_Speed
15 14 12 10 11 11 9 6 2 5 5 5 8 11 10 8 1 3 4 5 4 4 5 3 3 2 2 0 4 4 5 6 6 8 10 12 11 10 10 11 12 14 15
11 11 11 9 12 9 6 5 6 5 5 3 3 5 7 7 4 6 7 6 3 6 9 7 6 6 7 7 7 8 8 8 10 11 11 11 8 8 9 8 10 10 13
13 12 10 8 9 7 11 9 8 6 6 6 5 5 4 2 1 6 8 6 5 4 7 11 12 13 13 13 13 13 13 14 13 12 12 12 12 12 12 14 14 15 16
15 16 16 17 15 13 14 13 14 11 11 9 8 8 6 5 4 8 8 8 9 8 8 9 10 10 13 14 14 15 16 16 15 14 13 13 13 15 15 15 15 16 15
19 20 17 17 15 16 18 19 17 17 13 11 11 10 10 10 8 9 9 10 11 11 12 13 12 12 12 13 11 12 13 15 14 13 12 14 14 16 16 16 16 15 16
20 23 19 18 19 21 21 21 16 15 15 13 14 13 12 13 12 13 11 12 14 16 16 15 16 15 15 13 12 12 13 12 12 13 16 15 15 15 17 17 17 16 17
22 22 22 22 23 21 21 21 21 21 21 18 15 15 15 16 18 17 16 17 15 15 17 17 16 17 16 15 15 17 15 14 16 15 14 19 18 19 19 17 18 18 19
25 26 24 27 24 24 22 23 24 25 24 22 20 20 15 15 21 21 18 20 18 17 20 19 17 21 19 17 19 16 17 17 17 18 20 23 22 25 22 19 18 19 19
24 29 27 28 26 24 23 26 26 26 23 22 20 17 9 6 7 12 16 21 21 21 23 23 19 20 21 21 20 18 20 19 20 21 23 24 27 27 26 22 20 20 20
28 32 29 29 30 26 22 26 27 27 23 17 19 20 21 14 7 5 7 13 24 24 25 23 23 22 22 24 22 21 21 20 21 23 24 26 28 30 27 23 22 21 21
31 31 27 29 30 29 26 27 25 28 26 23 26 24 22 17 10 14 17 16 19 26 27 26 23 23 25 25 25 23 23 24 24 24 26 28 30 29 29 24 24 23 22
32 32 32 32 28 30 31 29 29 28 31 31 31 31 28 24 19 17 23 24 28 21 20 24 25 26 26 28 26 26 24 25 27 27 27 28 30 32 30 27 25 22 22
29 27 33 31 34 34 34 29 27 28 32 30 31 32 35 34 30 31 26 26 21 23 25 22 20 21 26 24 28 25 25 28 29 27 28 30 33 34 32 29 25 24 24
31 38 34 28 32 36 36 30 27 28 30 30 31 29 33 32 30 19 22 26 27 29 28 28 21 21 21 23 24 25 26 28 28 27 28 31 34 35 35 28 26 26 24
38 39 34 31 29 31 33 33 32 29 29 29 28 26 28 23 18 23 25 24 25 29 31 30 26 25 21 18 21 25 27 27 26 26 30 34 36 36 33 29 27 27 26
31 36 43 35 31 32 35 35 29 28 26 29 28 26 22 23 25 23 22 23 22 28 31 29 28 26 26 28 26 26 28 27 29 32 37 38 37 36 31 25 26 27 26
32 30 33 30 31 32 34 31 26 25 27 29 27 24 23 24 24 20 23 21 24 27 32 35 34 31 28 27 31 31 32 33 35 36 38 37 35 34 27 24 26 28 27
30 24 20 23 25 25 23 23 23 25 27 27 26 25 25 22 22 23 20 23 25 26 32 37 36 33 32 34 36 35 35 38 38 39 39 36 34 34 29 26 28 30 28
21 18 21 20 19 18 20 20 19 21 24 24 24 22 22 17 21 17 19 22 25 27 28 33 38 38 39 37 38 38 37 40 43 40 37 35 33 33 29 29 30 28 29
20 19 17 16 16 16 18 18 17 18 20 21 20 18 18 19 15 17 20 23 25 28 31 34 39 44 44 40 37 41 43 41 45 42 40 34 33 30 30 33 29 29 28
15 15 16 17 19 19 18 18 16 17 15 15 15 16 21 16 18 22 25 29 30 32 35 39 44 41 43 43 44 45 45 44 42 38 43 35 33 31 34 33 29 31 22
13 15 16 17 18 19 17 14 10 9 11 12 17 19 18 21 25 22 17 16 18 24 30 34 38 38 42 41 42 43 44 44 43 41 35 34 33 32 37 29 29 20 23
12 12 13 13 13 12 10 10 9 10 12 15 18 19 19 21 16 21 24 26 28 30 32 35 38 41 41 42 40 40 43 44 43 42 36 36 31 33 32 28 21 20 26
10 10 10 10 10 10 8 8 10 13 15 14 16 17 18 20 22 25 30 34 36 37 39 41 42 44 43 41 38 40 43 44 44 39 34 34 33 32 30 24 17 21 27
12 11 9 10 11 10 8 10 10 11 14 15 15 19 20 23 26 30 34 37 39 40 38 39 39 41 44 47 49 44 40 37 40 36 36 36 32 32 27 22 22 25 27
12 11 12 11 12 11 11 12 14 15 16 17 19 20 21 22 25 26 29 31 35 36 37 39 39 36 33 33 35 36 41 38 41 36 36 36 30 29 24 25 25 22 18
Wind_Direction
162 167 176 181 178 171 169 176 178 221 185 146 126 151 169 220 282 349 337 331 317 231 216 223 267 263 311 297 319 339 351 346 350 344 343 349 357 9 1 360 7 9 5
183 193 187 172 185 189 193 210 225 175 145 134 164 163 139 179 273 294 303 316 342 222 218 218 233 256 284 302 297 302 307 311 319 323 325 330 329 327 330 337 342 340 342
193 198 215 200 212 200 221 199 204 187 211 239 195 205 186 172 286 287 269 289 304 291 238 243 251 261 273 281 288 295 300 304 306 310 314 318 318 318 315 304 308 314 318
191 210 209 218 219 210 209 209 210 218 231 240 240 234 249 295 307 298 259 264 263 268 258 252 258 264 279 280 284 287 292 295 298 300 308 311 312 309 308 307 304 305 318
227 237 231 202 204 215 214 219 227 234 226 231 247 262 266 278 303 300 281 263 262 241 249 263 266 273 275 272 275 283 292 294 290 294 301 300 302 304 310 313 315 321 318
237 239 224 203 220 219 224 235 225 218 229 241 246 258 264 272 282 276 284 276 266 260 266 266 271 278 282 266 268 283 293 292 292 292 295 298 302 306 309 310 312 315 314
235 228 219 210 222 234 239 229 222 221 230 230 224 235 248 267 271 266 272 264 247 267 271 277 286 284 281 267 275 291 289 292 295 298 304 314 316 318 317 317 315 313 312
229 226 221 219 223 232 242 229 231 229 228 237 235 240 249 252 249 258 268 261 252 253 253 270 284 289 287 281 288 288 286 292 295 302 309 314 319 321 316 314 312 312 312
233 230 218 225 227 233 240 224 230 233 241 245 240 234 229 232 211 238 255 250 248 255 256 262 276 281 279 282 285 291 290 298 296 298 304 312 315 315 316 313 311 310 310
237 229 220 227 232 229 231 225 233 239 238 228 234 243 249 247 265 261 271 258 248 254 261 268 277 271 263 268 276 282 286 285 286 293 299 308 312 316 313 309 309 309 309
234 237 236 229 227 232 229 221 231 226 226 237 246 238 239 230 274 277 296 273 259 256 259 261 264 257 260 261 265 265 268 274 276 280 292 302 314 315 311 307 308 307 306
230 235 235 236 233 235 234 230 235 242 254 274 250 228 222 233 260 288 276 265 266 270 269 262 264 256 250 249 262 266 274 269 271 279 287 300 316 318 311 306 306 304 306
233 239 243 242 239 239 237 245 249 263 261 266 247 228 237 246 254 274 249 258 263 265 267 271 273 257 254 263 265 271 270 267 268 274 289 303 312 316 312 306 308 308 308
248 251 251 242 238 239 240 243 256 265 264 250 240 244 249 243 262 244 241 250 264 268 266 264 266 270 275 274 275 272 265 262 262 277 291 300 309 311 311 307 313 314 308
248 255 258 244 243 244 244 243 263 262 259 247 245 246 248 250 230 240 246 258 268 271 273 275 270 257 259 262 267 265 259 261 273 285 294 300 305 309 309 307 310 314 315
243 242 251 248 238 241 241 247 261 259 248 244 244 256 241 230 235 241 252 260 262 270 274 276 278 275 266 266 274 274 275 272 278 284 292 296 302 307 306 304 305 312 315
247 244 243 241 245 244 244 259 259 253 245 240 251 248 232 231 239 255 275 248 263 267 273 276 278 277 269 260 262 271 275 273 275 281 285 289 295 301 298 300 298 309 310
241 239 240 248 250 247 254 258 255 250 242 245 248 237 234 242 259 275 272 261 267 270 273 277 277 274 272 270 270 269 272 275 276 278 282 282 288 293 293 288 296 298 302
239 247 255 256 254 256 255 255 255 245 242 245 241 234 245 259 262 278 273 274 267 269 275 275 276 273 271 268 270 272 268 270 274 275 273 273 277 283 285 291 290 287 300
241 246 248 249 255 257 251 251 249 231 239 239 237 245 237 246 278 274 277 279 280 279 280 278 277 277 277 282 279 274 273 268 265 267 267 264 274 276 276 291 286 290 294
234 236 240 246 246 243 243 250 236 235 237 234 237 245 239 274 290 276 277 280 279 281 282 283 286 289 289 287 284 287 280 283 276 263 262 253 264 267 283 291 286 288 288
224 228 232 233 234 237 237 228 208 209 223 230 241 266 269 285 296 293 288 289 290 293 290 288 290 292 291 290 291 287 283 280 272 266 248 252 259 276 283 285 286 276 280
211 210 207 209 205 197 180 174 193 211 223 234 260 274 283 292 287 283 280 282 281 278 275 281 284 286 292 292 294 293 289 282 274 264 253 255 259 284 280 284 272 268 281
203 202 197 185 175 165 174 192 207 225 241 257 274 278 274 274 282 284 286 286 286 285 282 282 284 286 286 285 286 287 288 285 278 255 246 250 269 275 274 275 264 264 281
186 181 173 164 166 169 192 218 233 241 254 259 263 273 279 280 281 286 291 292 292 294 295 292 291 289 287 281 276 282 284 274 258 252 249 248 265 265 274 270 263 272 279
166 165 156 163 173 191 212 233 241 251 262 266 276 281 283 289 296 302 303 305 306 310 310 308 308 309 310 313 304 280 275 267 256 250 251 244 256 262 264 264 266 272 279
Height
1571 1573 1576 1579 1581 1582 1583 1583 1585 1587 1587 1588 1587 1589 1589 1587 1587 1587 1588 1588 1587 1587 1586 1586 1585 1585 1585 1585 1585 1584 1584 1583 1583 1583 1582 1580 1579 1578 1576 1574 1572 1572 1572
1571 1574 1576 1579 1580 1582 1582 1583 1586 1586 1586 1587 1587 1588 1589 1588 1587 1587 1587 1587 1586 1586 1587 1586 1586 1587 1584 1584 1584 1584 1583 1582 1581 1581 1580 1579 1577 1575 1574 1573 1572 1571 1571
1571 1573 1575 1577 1579 1580 1582 1584 1585 1585 1585 1586 1586 1588 1587 1587 1587 1587 1587 1586 1585 1585 1587 1585 1584 1586 1584 1583 1583 1583 1581 1580 1579 1578 1577 1575 1574 1572 1571 1570 1570 1568 1567
1570 1573 1574 1575 1577 1580 1581 1583 1584 1585 1585 1586 1584 1585 1585 1585 1586 1584 1584 1583 1584 1583 1584 1584 1582 1582 1583 1582 1581 1580 1579 1577 1576 1574 1573 1572 1571 1569 1568 1567 1566 1565 1564
1567 1569 1572 1573 1575 1577 1579 1581 1582 1583 1583 1584 1584 1584 1583 1585 1586 1585 1580 1579 1580 1580 1580 1581 1580 1578 1579 1579 1578 1578 1577 1574 1573 1572 1570 1569 1567 1566 1565 1564 1563 1562 1561
1563 1566 1569 1570 1572 1575 1576 1578 1579 1581 1581 1582 1583 1582 1582 1583 1583 1583 1581 1579 1575 1577 1576 1577 1577 1576 1576 1575 1574 1574 1574 1572 1570 1569 1568 1566 1565 1563 1562 1560 1559 1557 1557
1561 1563 1566 1567 1568 1570 1572 1574 1576 1578 1578 1578 1580 1580 1580 1580 1579 1578 1578 1577 1576 1573 1572 1573 1572 1571 1571 1571 1570 1570 1570 1569 1567 1565 1564 1562 1561 1559 1558 1556 1555 1553 1551
1556 1558 1562 1563 1565 1567 1568 1569 1571 1572 1574 1574 1575 1577 1577 1576 1576 1575 1575 1574 1572 1572 1571 1570 1569 1568 1567 1566 1566 1565 1566 1565 1563 1562 1560 1558 1557 1555 1553 1552 1550 1548 1546
1552 1554 1556 1558 1560 1561 1562 1564 1565 1566 1567 1569 1571 1573 1572 1570 1570 1572 1571 1571 1570 1568 1567 1567 1565 1564 1563 1562 1561 1560 1560 1560 1559 1558 1557 1555 1553 1552 1549 1546 1544 1543 1541
1548 1549 1549 1552 1553 1554 1557 1559 1559 1561 1562 1565 1567 1566 1568 1567 1566 1566 1566 1566 1566 1565 1565 1564 1562 1560 1559 1557 1556 1555 1554 1554 1554 1553 1553 1552 1549 1547 1544 1541 1539 1537 1534
1542 1543 1544 1546 1547 1547 1547 1549 1554 1554 1555 1558 1559 1562 1563 1562 1562 1562 1559 1562 1563 1560 1559 1559 1558 1556 1555 1553 1551 1551 1550 1550 1550 1549 1548 1548 1545 1542 1539 1536 1533 1530 1528
1535 1535 1538 1540 1541 1541 1542 1544 1545 1547 1547 1547 1549 1550 1552 1554 1556 1557 1556 1556 1555 1554 1553 1553 1552 1551 1550 1549 1547 1546 1545 1545 1544 1543 1542 1541 1539 1536 1532 1529 1527 1524 1522
1529 1533 1533 1534 1534 1535 1537 1539 1540 1540 1541 1541 1541 1545 1547 1548 1549 1551 1549 1550 1549 1548 1548 1548 1547 1546 1545 1544 1541 1540 1539 1538 1538 1536 1536 1535 1532 1530 1527 1523 1520 1518 1515
1519 1524 1527 1527 1528 1530 1532 1533 1534 1535 1535 1535 1537 1539 1540 1542 1544 1543 1544 1544 1542 1541 1540 1541 1541 1542 1541 1539 1536 1535 1533 1533 1532 1531 1530 1528 1525 1523 1519 1517 1515 1512 1509
1510 1516 1520 1521 1522 1524 1526 1528 1528 1529 1529 1530 1532 1534 1535 1536 1537 1539 1539 1539 1538 1535 1533 1535 1536 1537 1536 1534 1532 1529 1528 1527 1526 1524 1522 1520 1519 1516 1513 1511 1509 1506 1503
1503 1502 1511 1512 1514 1518 1520 1522 1521 1521 1522 1525 1527 1528 1528 1529 1531 1532 1534 1534 1534 1531 1527 1528 1529 1530 1530 1528 1525 1523 1522 1520 1518 1516 1516 1514 1512 1509 1506 1504 1502 1500 1497
1500 1498 1502 1506 1509 1511 1514 1515 1514 1515 1517 1520 1521 1522 1523 1523 1525 1527 1528 1528 1528 1527 1523 1522 1522 1523 1521 1521 1520 1517 1515 1513 1511 1509 1508 1506 1504 1501 1499 1498 1495 1493 1491
1494 1491 1498 1500 1502 1504 1506 1507 1508 1509 1512 1514 1515 1515 1518 1519 1522 1523 1522 1522 1522 1522 1520 1516 1515 1514 1513 1513 1512 1510 1508 1505 1503 1501 1499 1497 1497 1494 1491 1489 1488 1486 1484
1485 1488 1490 1493 1495 1497 1499 1500 1502 1504 1506 1508 1509 1511 1514 1516 1517 1517 1517 1516 1516 1515 1514 1510 1504 1503 1503 1504 1502 1500 1498 1496 1494 1492 1489 1488 1487 1484 1483 1481 1480 1478 1477
1482 1483 1484 1487 1490 1492 1494 1496 1497 1498 1501 1503 1506 1508 1510 1511 1512 1511 1510 1509 1508 1507 1505 1502 1496 1493 1492 1491 1490 1488 1486 1485 1482 1482 1480 1478 1477 1475 1475 1473 1471 1470 1469
1476 1478 1479 1481 1484 1486 1488 1490 1492 1494 1497 1500 1503 1505 1506 1507 1507 1506 1504 1502 1500 1498 1496 1493 1487 1485 1481 1479 1478 1477 1474 1473 1470 1472 1469 1467 1467 1467 1466 1465 1463 1463 1462
1470 1472 1474 1477 1480 1481 1483 1486 1489 1492 1495 1497 1499 1501 1501 1502 1499 1498 1496 1495 1494 1491 1489 1486 1480 1477 1473 1472 1470 1467 1464 1462 1460 1460 1461 1458 1456 1457 1456 1456 1456 1454 1454
1467 1469 1471 1473 1476 1478 1481 1484 1487 1489 1492 1495 1496 1496 1496 1495 1492 1488 1486 1485 1484 1483 1482 1477 1472 1468 1465 1462 1460 1456 1453 1451 1448 1449 1450 1450 1448 1448 1448 1447 1446 1447 1447
1465 1466 1468 1471 1473 1476 1479 1482 1484 1487 1489 1490 1491 1490 1488 1487 1485 1481 1478 1476 1474 1472 1469 1467 1464 1458 1454 1451 1449 1446 1443 1439 1436 1436 1438 1438 1439 1438 1441 1439 1439 1440 1440
1462 1464 1467 1469 1472 1475 1478 1479 1481 1483 1484 1484 1484 1484 1482 1481 1479 1476 1472 1467 1461 1458 1456 1452 1448 1444 1441 1437 1435 1435 1430 1428 1424 1422 1425 1427 1428 1430 1431 1430 1431 1433 1432
1460 1464 1466 1468 1471 1473 1475 1476 1476 1478 1479 1479 1478 1477 1476 1474 1471 1468 1463 1458 1451 1446 1441 1436 1433 1430 1428 1423 1419 1419 1419 1416 1416 1413 1414 1417 1419 1422 1421 1421 1424 1425 1425